Home > Weather > Qadian > Past weeks

Flag for India Past Weather in Qadian, Punjab, India — Yesterday and Last 2 Weeks

Now
82 °F

Thundershowers. More clouds than sun.


Feels Like: 96 °F
Forecast: 77 / 95 °F
Wind: 5 mph from South

Location: Amritsar Airport

Current Time: Jul 27, 2016 at 3:17:47 PM

Latest Report: Jul 27, 2016 at 11:30 AM


Visibility: 1 mi

Pressure: 29.74 "Hg

Humidity: 100%

Dew Point: 82 °F

Location of QadianLocation

Past Weather in Qadian — Graph

°F

Qadian Temperature Yesterday

Maximum temperature yesterday: 97 °F (at 2:30 PM)
Minimum temperature yesterday: 82 °F (at 4:30 AM)
Average temperature yesterday: 88 °F

High & Low Weather Summary for the Past Weeks

 TemperatureHumidityPressure
High99 °F (Jul 21, 1:00 PM)100% (Jul 12, 11:00 PM)29.74 "Hg (Jul 12, 11:00 PM)
Low73 °F (Jul 17, 5:00 AM)50% (Jul 21, 3:30 PM)29.42 "Hg (Jul 14, 5:30 PM)
Average87 °F88%29.55 "Hg
* Reported Jul 12 11:30 AM — Jul 27 11:30 AM, Qadian, Weather by CustomWeather, © 2016

Note: Actual official high and low records may vary slightly from our data, if they occured in-between our weather recording intervals... More about our weather records

Advertising

Qadian Weather History for the Previous 24 Hours

Scroll right to see more
 ConditionsComfort  
Time TempWeatherWind HumidityBarometerVisibility
11:30 AM
Wed, Jul 27
82 °FThundershowers. More clouds than sun.5 mph100%29.74 "Hg1 mi
8:00 AM82 °FFog.12 mph100%29.68 "Hg1 mi
7:30 AM82 °FFog.12 mph100%29.68 "Hg1 mi
7:00 AM82 °FFog.12 mph100%29.65 "Hg1 mi
6:30 AM82 °FFog.14 mph100%29.65 "Hg1 mi
6:00 AM82 °FFog.15 mph100%29.62 "Hg1 mi
5:30 AM82 °FFog.13 mph100%29.62 "Hg1 mi
5:00 AM84 °FFog.14 mph100%29.62 "Hg1 mi
4:00 AM82 °FFog.13 mph100%29.59 "Hg1 mi
3:30 AM84 °FFog.13 mph100%29.59 "Hg1 mi
3:00 AM84 °FFog.15 mph100%29.59 "Hg1 mi
2:30 AM82 °FFog.14 mph100%29.59 "Hg2 mi
2:00 AM82 °FFog.10 mph100%29.62 "Hg2 mi
1:30 AM84 °FFog.10 mph100%29.62 "Hg2 mi
1:00 AM84 °FFog.10 mph100%29.62 "Hg2 mi
12:30 AM84 °FFog.10 mph100%29.62 "Hg2 mi
12:00 AM86 °FFog.12 mph94%29.62 "Hg2 mi
11:30 PM
Tue, Jul 26
86 °FFog.9 mph89%29.65 "Hg2 mi
11:00 PM86 °FFog.8 mph94%29.62 "Hg2 mi
10:30 PM88 °FFog.5 mph89%29.62 "Hg2 mi
10:00 PM88 °FFog.7 mph84%29.62 "Hg2 mi
8:00 PM88 °FFog.5 mph89%29.56 "Hg3 mi
7:30 PM90 °FFog.3 mph79%29.56 "Hg3 mi
7:00 PM90 °FFog.5 mph79%29.56 "Hg3 mi
6:30 PM91 °FScattered clouds.2 mph75%29.56 "Hg3 mi
6:00 PM91 °FScattered clouds.6 mph71%29.53 "Hg3 mi
5:30 PM91 °FScattered clouds.7 mph71%29.53 "Hg3 mi
5:00 PM91 °FScattered clouds.7 mph80%29.53 "Hg3 mi
4:30 PM93 °FScattered clouds.8 mph80%29.53 "Hg3 mi
4:00 PM95 °FScattered clouds.3 mph63%29.53 "Hg3 mi
3:30 PM97 °FScattered clouds.2 mph56%29.56 "Hg3 mi
3:00 PM95 °FScattered clouds.2 mph60%29.59 "Hg3 mi
Weather by CustomWeather, © 2016

See weather overviewHow to use our weather pages